15 daagse weersverwachting Maia (PT)

  • Overzicht
  • Per uur
  • 15 dagen
  • Extra
  • Vergelijk
  • Kaarten
  • Dagkaart
  • Meer »
  • Info
  • Statistieken
  • Directe link
    Temp 6h Neerslag Wind  
 07:53     17:05    Daglengte: 9:12 Vandaag
18:00
14°
3.2 mm
4
 07:53     17:06    Daglengte: 9:13 Morgen
00:00
13°
1.6 mm
4
06:00
13°
3.1 mm
3
12:00
14°
0.8 mm
5
18:00
13°
7.5 mm
6
 07:54     17:06    Daglengte: 9:12 Zondag 15 Dec
00:00
13°
4.2 mm
7
06:00
13°
12.6 mm
7
12:00
12°
33.8 mm
4
18:00
12°
56.6 mm
3
 07:55     17:06    Daglengte: 9:11 Maandag 16 Dec
00:00
11°
62.4 mm
3
06:00
10°
88.6 mm
3
Locatie info
Region: Porto
Latitude: 41.2327°N
Longitude: -8.6232°E
93 masl
Postcode: 4470-151
Temp/Neerslag /Baro Onweer/Dauwpunt
    Temp Baro 1h Neerslag Dauwpunt Wind UV Bewolking  
 07:53     17:05    Daglengte: 9:12 Vandaag
14:00
14°
1021.3 hPa 0.6 mm
82%
12.8°
5
Windvlaag: 1.4 km/h
88%
15:00
14°
1021.0 hPa 0.7 mm
82%
12.8°
5
Windvlaag: 1.2 km/h
79%
16:00
14°
1021.1 hPa 0.7 mm
82%
12.7°
4
Windvlaag: 1 km/h
69%
17:00
14°
1021.1 hPa 0.5 mm
82%
12.6°
4
Windvlaag: 0.9 km/h
77%
18:00
14°
1021.2 hPa 0.7 mm
81%
12.2°
4
Windvlaag: 1.1 km/h
69%
19:00
13°
1021.2 hPa 0.8 mm
81%
11.9°
4
Windvlaag: 1.1 km/h
61%
20:00
13°
1021.4 hPa 0.8 mm
82%
12.0°
4
Windvlaag: 1.2 km/h
69%
21:00
13°
1021.4 hPa
71%
12.0°
4
Windvlaag: 1.4 km/h
55%
22:00
13°
1021.3 hPa
36%
11.8°
3
Windvlaag: 1.5 km/h
58%
23:00
13°
1021.0 hPa
22%
11.7°
3
Windvlaag: 1.5 km/h
80%
 07:53     17:06    Daglengte: 9:13 Morgen
00:00
13°
1020.8 hPa
26%
11.7°
4
Windvlaag: 1.5 km/h
87%
01:00
13°
1020.3 hPa
73%
11.6°
4
Windvlaag: 1.6 km/h
86%
02:00
13°
1020.0 hPa 1.0 mm
77%
11.6°
4
Windvlaag: 2.1 km/h
74%
03:00
13°
1019.9 hPa 1.1 mm
82%
11.1°
4
Windvlaag: 2.3 km/h
69%
04:00
13°
1019.5 hPa
72%
11.4°
3
Windvlaag: 2.3 km/h
86%
05:00
13°
1019.2 hPa 1.0 mm
81%
11.4°
3
Windvlaag: 2.3 km/h
87%
06:00
13°
1019.1 hPa
81%
11.2°
3
Windvlaag: 2.3 km/h
87%
07:00
13°
1019.2 hPa
60%
11.2°
3
Windvlaag: 2.4 km/h
90%
08:00
13°
1019.2 hPa 0.8 mm
71%
11.4°
3
Windvlaag: 2.7 km/h
85%
09:00
13°
1019.2 hPa
80%
11.5°
4
Windvlaag: 2.9 km/h
79%
10:00
14°
1019.2 hPa
77%
11.8°
4
Windvlaag: 3.8 km/h
78%
11:00
14°
1019.2 hPa
80%
12.3°
5
Windvlaag: 4.1 km/h
80%
12:00
14°
1018.6 hPa
75%
12.1°
5
Windvlaag: 4.9 km/h
81%
13:00
14°
1017.9 hPa 1.3 mm
82%
11.8°
6
Windvlaag: 5.1 km/h
88%
14:00
14°
1017.3 hPa 1.2 mm
82%
11.8°
6
Windvlaag: 5 km/h
86%
15:00
14°
1017.0 hPa 1.4 mm
81%
11.8°
6
Windvlaag: 5.3 km/h
62%
16:00
14°
1016.7 hPa 1.1 mm
82%
11.5°
6
Windvlaag: 5.1 km/h
53%
17:00
13°
1016.4 hPa 1.1 mm
81%
11.6°
6
Windvlaag: 5.3 km/h
80%
18:00
13°
1016.1 hPa 1.4 mm
76%
11.8°
6
Windvlaag: 5.8 km/h
69%
19:00
13°
1016.1 hPa
80%
12.0°
6
Windvlaag: 4.7 km/h
79%
20:00
13°
1015.8 hPa 1.1 mm
81%
11.8°
7
Windvlaag: 5.8 km/h
60%
21:00
13°
1015.6 hPa 1.6 mm
80%
11.8°
7
Windvlaag: 6.2 km/h
66%
22:00
13°
1015.2 hPa
82%
11.7°
7
Windvlaag: 6.4 km/h
47%
23:00
13°
1014.8 hPa 1.5 mm
82%
11.7°
7
Windvlaag: 6.6 km/h
50%
 07:54     17:06    Daglengte: 9:12 Zondag 15 Dec
00:00
13°
1014.2 hPa
82%
11.8°
7
Windvlaag: 6.7 km/h
41%
01:00
13°
1013.6 hPa
82%
11.9°
7
Windvlaag: 6.9 km/h
64%
02:00
13°
1013.1 hPa 1.6 mm
81%
11.8°
7
Windvlaag: 6.8 km/h
73%
03:00
13°
1012.5 hPa 1.9 mm
82%
11.9°
7
Windvlaag: 6.7 km/h
85%
04:00
13°
1011.7 hPa 2.3 mm
82%
11.7°
8
Windvlaag: 7 km/h
91%
05:00
13°
1011.2 hPa 2.9 mm
80%
12.1°
7
Windvlaag: 5.5 km/h
91%
06:00
13°
1011.0 hPa 3.9 mm
82%
12.0°
7
Windvlaag: 3.5 km/h
89%
07:00
13°
1010.8 hPa 4.1 mm
80%
11.8°
7
Windvlaag: 2.8 km/h
90%
08:00
13°
1010.7 hPa 4.8 mm
82%
11.9°
7
Windvlaag: 3 km/h
91%
09:00
12°
1011.0 hPa 5.1 mm
100%
11.6°
7
Windvlaag: 3 km/h
99%
10:00
13°
1011.0 hPa 5.6 mm
100%
11.7°
7
Windvlaag: 3 km/h
100%
11:00
13°
1011.0 hPa 6.9 mm
100%
11.6°
7
Windvlaag: 3.8 km/h
100%
12:00
12°
1010.4 hPa 7.3 mm
100%
11.6°
4
Windvlaag: 4 km/h
100%
13:00
12°
1009.7 hPa 7.6 mm
100%
11.0°
4
Windvlaag: 4.3 km/h
100%
14:00
12°
1008.8 hPa 9.1 mm
100%
10.5°
3
Windvlaag: 3.6 km/h
100%
15:00
12°
1008.3 hPa 9.7 mm
100%
10.7°
3
Windvlaag: 2.9 km/h
100%
16:00
12°
1007.8 hPa 10.5 mm
100%
10.9°
3
Windvlaag: 2.6 km/h
100%
17:00
12°
1007.2 hPa 10.8 mm
100%
10.8°
3
Windvlaag: 3.1 km/h
100%
18:00
12°
1006.9 hPa 8.9 mm
100%
10.6°
3
Windvlaag: 3.7 km/h
100%
19:00
12°
1006.7 hPa 9.1 mm
100%
10.2°
3
Windvlaag: 3.7 km/h
100%
20:00
11°
1006.6 hPa 9.4 mm
100%
9.9°
3
Windvlaag: 3.2 km/h
100%
21:00
11°
1006.0 hPa 11.5 mm
100%
9.4°
3
Windvlaag: 2.7 km/h
100%
22:00
11°
1005.2 hPa 10.7 mm
100%
9.1°
3
Windvlaag: 2.5 km/h
100%
23:00
11°
1004.3 hPa 10.8 mm
100%
8.9°
3
Windvlaag: 2.2 km/h
100%
 07:55     17:06    Daglengte: 9:11 Maandag 16 Dec
00:00
11°
1003.8 hPa 10.9 mm
100%
8.4°
3
Windvlaag: 2.4 km/h
100%
01:00
10°
1002.5 hPa 15.0 mm
100%
8.5°
3
Windvlaag: 8.3 km/h
100%
02:00
10°
1001.7 hPa 16.4 mm
100%
8.5°
3
Windvlaag: 8.1 km/h
100%
03:00
10°
1001.1 hPa 14.2 mm
100%
8.5°
3
Windvlaag: 8.7 km/h
100%
04:00
10°
1000.2 hPa 13.9 mm
100%
8.5°
3
Windvlaag: 8.7 km/h
100%
05:00
10°
999.5 hPa 14.2 mm
100%
8.5°
3
Windvlaag: 7.8 km/h
100%
06:00
10°
Voelt als: 8.5°
999.1 hPa 15.0 mm
100%
8.3°
3
Windvlaag: 3.9 km/h
99%
07:00
10°
Voelt als: 8.3°
998.9 hPa 24.3 mm
100%
7.9°
3
Windvlaag: 8.4 km/h
100%
08:00
10°
Voelt als: 8.4°
998.0 hPa 23.8 mm
100%
7.8°
3
Windvlaag: 7.9 km/h
98%
09:00
10°
Voelt als: 8.4°
997.1 hPa 23.6 mm
100%
7.9°
3
Windvlaag: 8.1 km/h
100%
10:00
10°
996.3 hPa 23.6 mm
100%
7.9°
3
Windvlaag: 7.3 km/h
100%
11:00
10°
995.7 hPa 23.6 mm
100%
8.0°
3
Windvlaag: 5.5 km/h
100%
Temp/Neerslag /Baro Onweer/Dauwpunt
    Temp Baro Neerslag Dauwpunt Wind Bewolking  
 07:53     17:05    Daglengte: 9:12 Vandaag
15:00
14°
1021.0 hPa 1.3 mm 12.8°
5
79%
18:00
14°
1021.2 hPa 1.9 mm 12.2°
4
69%
21:00
13°
1021.4 hPa 1.6 mm 12.0°
4
55%
 07:53     17:06    Daglengte: 9:13 Morgen
00:00
13°
1020.8 hPa   11.7°
4
87%
03:00
13°
1019.9 hPa 2.1 mm 11.1°
4
69%
06:00
13°
1019.1 hPa 1.0 mm 11.2°
3
87%
09:00
13°
1019.2 hPa 0.8 mm 11.5°
4
79%
12:00
14°
1018.6 hPa   12.1°
5
81%
15:00
14°
1017.0 hPa 3.8 mm 11.8°
6
62%
18:00
13°
1016.1 hPa 3.7 mm 11.8°
6
69%
21:00
13°
1015.6 hPa 2.7 mm 11.8°
7
66%
 07:54     17:06    Daglengte: 9:12 Zondag 15 Dec
00:00
13°
1014.2 hPa 1.5 mm 11.8°
7
41%
03:00
13°
1012.5 hPa 3.5 mm 11.9°
7
85%
06:00
13°
1011.0 hPa 9.1 mm 12.0°
7
89%
09:00
12°
1011.0 hPa 14.0 mm 11.6°
7
99%
12:00
12°
1010.4 hPa 19.8 mm 11.6°
4
100%
15:00
12°
1008.3 hPa 26.4 mm 10.7°
3
100%
18:00
12°
1006.9 hPa 30.2 mm 10.6°
3
100%
21:00
11°
1006.0 hPa 30.1 mm 9.4°
3
100%
 07:55     17:06    Daglengte: 9:11 Maandag 16 Dec
00:00
11°
1003.8 hPa 32.4 mm 8.4°
3
100%
03:00
10°
1001.1 hPa 45.6 mm 8.5°
3
100%
06:00
10°
Voelt als: 8.5°
999.1 hPa 43.1 mm 8.3°
3
99%
09:00
10°
Voelt als: 8.4°
997.1 hPa 71.6 mm 7.9°
3
100%
12:00
10°
994.6 hPa 70.7 mm 8.2°
3
100%
15:00
12°
990.0 hPa 63.7 mm 9.0°
5
92%
18:00
13°
988.0 hPa 63.8 mm 9.4°
6
92%
21:00
11°
988.7 hPa 64.0 mm 9.3°
4
92%
 07:55     17:07    Daglengte: 9:12 Dinsdag 17 Dec
00:00
10°
989.3 hPa 64.0 mm 9.1°
2
92%
03:00
10°
991.5 hPa 64.0 mm 8.0°
6
92%
06:00
10°
Voelt als: 6.2°
993.7 hPa 64.0 mm 6.9°
9
92%
09:00
11°
997.8 hPa 64.0 mm 6.7°
8
62%
12:00
11°
1001.7 hPa 64.0 mm 6.4°
8
32%
15:00
10°
1004.7 hPa 64.0 mm 5.5°
5
17%
18:00
Voelt als: 7.1°
1008.0 hPa 64.0 mm 4.6°
3
2%
21:00
Voelt als: 6.1°
1009.8 hPa 64.0 mm 4.5°
2
15%
 07:56     17:07    Daglengte: 9:11 Woensdag 18 Dec
00:00
Voelt als: 5.4°
1011.5 hPa 64.0 mm 4.3°
2
27%
03:00
Voelt als: 4.9°
1011.1 hPa 64.0 mm 4.3°
4
60%
06:00
Voelt als: 5.3°
1010.6 hPa 64.0 mm 4.4°
6
92%
09:00
Voelt als: 6.0°
1009.2 hPa 68.0 mm 6.3°
7
92%
12:00
11°
1007.8 hPa 69.2 mm 8.0°
9
92%
15:00
11°
1006.2 hPa 76.8 mm 9.2°
9
92%
18:00
12°
1005.1 hPa 90.2 mm 10.3°
9
92%
21:00
13°
1003.8 hPa 91.9 mm 11.1°
9
92%
 07:57     17:07    Daglengte: 9:10 Donderdag 19 Dec
00:00
13°
1002.5 hPa 106.9 mm 11.9°
9
92%
03:00
13°
1002.0 hPa 118.3 mm 11.5°
9
92%
06:00
13°
1001.6 hPa 120.9 mm 11.1°
8
92%
09:00
13°
1002.1 hPa 122.3 mm 11.2°
7
63%
12:00
13°
1002.1 hPa 126.0 mm 11.4°
6
34%
15:00
13°
1000.0 hPa 137.4 mm 11.1°
7
63%
18:00
12°
998.6 hPa 147.3 mm 10.5°
8
92%
21:00
11°
999.2 hPa 150.8 mm 10.3°
7
88%
 07:57     17:08    Daglengte: 9:11 Vrijdag 20 Dec
00:00
11°
1000.2 hPa 155.8 mm 9.8°
6
85%
03:00
11°
1001.3 hPa 157.6 mm 9.5°
5
86%
06:00
11°
1002.3 hPa 159.1 mm 9.4°
5
87%
09:00
12°
1002.1 hPa 160.7 mm 10.3°
6
89%
12:00
13°
1001.7 hPa 322.5 mm 11.2°
7
92%
18:00
14°
1001.7 hPa 324.9 mm 13.2°
6
92%
 07:58     17:08    Daglengte: 9:10 Zaterdag 21 Dec
00:00
14°
1004.2 hPa 328.3 mm 13.7°
6
92%
06:00
14°
1002.4 hPa 345.8 mm 13.5°
5
92%
12:00
15°
1003.6 hPa 347.3 mm 13.6°
8
83%
18:00
13°
1003.8 hPa 348.1 mm 10.2°
8
52%
 07:58     17:09    Daglengte: 9:11 Zondag 22 Dec
00:00
12°
1005.3 hPa 348.7 mm 9.4°
8
75%
06:00
11°
1008.1 hPa 349.1 mm 9.4°
8
41%
12:00
12°
1013.3 hPa 349.3 mm 8.9°
7
73%
18:00
12°
1017.2 hPa 350.0 mm 7.6°
6
21%
 07:59     17:09    Daglengte: 9:10 Maandag 23 Dec
00:00
14°
1023.5 hPa 350.2 mm 11.9°
2
1%
06:00
13°
1021.4 hPa 350.2 mm 11.5°
2
1%
12:00
14°
1019.7 hPa 2.6 mm 11.5°
4
73%
18:00
13°
1017.4 hPa 2.1 mm 11.5°
4
70%
 07:59     17:10    Daglengte: 9:11 Dinsdag 24 Dec
00:00
13°
1016.1 hPa 2.9 mm 10.8°
5
70%
06:00
12°
1013.2 hPa 4.2 mm 10.9°
5
78%
12:00
13°
1012.1 hPa 6.9 mm 11.0°
3
81%
18:00
13°
1010.8 hPa 4.0 mm 10.9°
3
78%
 07:59     17:10    Daglengte: 9:11 Woensdag 25 Dec
00:00
12°
1011.6 hPa 3.8 mm 10.1°
3
66%
06:00
12°
1011.6 hPa 2.5 mm 9.5°
2
68%
12:00
13°
1013.1 hPa 2.6 mm 9.8°
4
70%
18:00
12°
1013.4 hPa 3.2 mm 9.7°
3
64%
 08:00     17:11    Daglengte: 9:11 Donderdag 26 Dec
00:00
11°
1014.4 hPa 2.0 mm 9.0°
2
65%
06:00
11°
1013.6 hPa 2.3 mm 9.0°
2
65%
12:00
13°
1014.6 hPa 2.0 mm 9.5°
2
62%
18:00
12°
1014.4 hPa 1.8 mm 9.4°
1
53%
 08:00     17:12    Daglengte: 9:12 Vrijdag 27 Dec
00:00
12°
1015.7 hPa 2.0 mm 9.3°
2
63%
06:00
11°
1015.7 hPa 2.4 mm 9.1°
2
62%
12:00
12°
1017.6 hPa 1.4 mm 9.8°
2
68%
18:00
12°
1018.0 hPa 0.9 mm 9.5°
2
67%
 08:00     17:12    Daglengte: 9:12 Zaterdag 28 Dec
00:00
11°
1019.7 hPa 0.7 mm 8.9°
1
63%
06:00
11°
1019.2 hPa 1.2 mm 8.5°
2
67%
12:00
12°
1020.0 hPa 2.0 mm 9.1°
2
57%
  CAPE Lifted Index Hail Supercell Tornado SRH 3km CL BTM PRES CL TOP PRES Swiss DWD icon SMHI TS
 07:53     17:05    Daglengte: 9:12 Vandaag
14:00 59 J/kg 7.6 K 0 % 0 % 0 % 0 m²/s² 0 0 17.2 80
15:00 64 J/kg 7.3 K 0 % 0 % 0 % 0 m²/s² 0 0 17.83 80
16:00 73 J/kg 7.1 K 0 % 0 % 0 % 0 m²/s² 0 0 15.89 80
17:00 76 J/kg 7.5 K 0 % 0 % 0 % 0 m²/s² 0 0 14.58 80
18:00 59 J/kg 8.1 K 0 % 0 % 0 % 0 m²/s² 0 0 13.86 80
19:00 56 J/kg 8.3 K 0 % 0 % 0 % 0 m²/s² 0 0 14.06 80
20:00 56 J/kg 8.2 K 0 % 0 % 0 % 0 m²/s² 0 0 13.66 3
21:00 54 J/kg 8.0 K 0 % 0 % 0 % 0 m²/s² 0 0 14.09 3
22:00 65 J/kg 7.8 K 0 % 0 % 0 % 0 m²/s² 0 0 16.95 3
23:00 82 J/kg 7.6 K 0 % 0 % 0 % 0 m²/s² 0 0 16.03 3
 07:53     17:06    Daglengte: 9:13 Morgen
00:00 95 J/kg 7.4 K 0 % 0 % 0 % 0 m²/s² 0 0 15.53 3
01:00 93 J/kg 7.5 K 0 % 0 % 0 % 0 m²/s² 0 0 16.29 3
02:00 97 J/kg 7.5 K 0 % 0 % 0 % 0 m²/s² 0 0 17.07 3
03:00 89 J/kg 7.5 K 0 % 0 % 0 % 0 m²/s² 0 0 16.26 80
04:00 79 J/kg 7.2 K 0 % 0 % 0 % 0 m²/s² 0 0 15 3
05:00 73 J/kg 6.7 K 0 % 0 % 0 % 0 m²/s² 0 0 13.33 3
06:00 69 J/kg 6.1 K 0 % 0 % 0 % 0 m²/s² 0 0 11.98 3
07:00 64 J/kg 5.7 K 0 % 0 % 0 % 0 m²/s² 0 0 11.13 3
08:00 61 J/kg 5.5 K 0 % 0 % 0 % 0 m²/s² 0 0 11.2 80
09:00 49 J/kg 5.3 K 0 % 0 % 0 % 0 m²/s² 0 0 10.7 80
10:00 24 J/kg 5.4 K 0 % 0 % 0 % 0 m²/s² 0 0 8.67 2
11:00 43 J/kg 5.0 K 0 % 0 % 0 % 0 m²/s² 0 0 6.5 80
12:00 37 J/kg 4.8 K 0 % 0 % 0 % 0 m²/s² 0 0 8.31 3
13:00 56 J/kg 4.0 K 0 % 0 % 0 % 0 m²/s² 0 0 8.23 61
14:00 50 J/kg 3.9 K 0 % 0 % 0 % 0 m²/s² 0 0 7.98 80
15:00 52 J/kg 3.3 K 0 % 0 % 0 % 0 m²/s² 0 0 7.08 80
16:00 61 J/kg 2.9 K 0 % 0 % 0 % 0 m²/s² 0 0 6.68 80
17:00 67 J/kg 3.0 K 0 % 0 % 0 % 0 m²/s² 0 0 4.53 80
18:00 68 J/kg 2.9 K 0 % 0 % 0 % 0 m²/s² 0 0 5.87 3
19:00 78 J/kg 2.9 K 0 % 0 % 0 % 0 m²/s² 0 0 8 3
20:00 72 J/kg 3.0 K 0 % 0 % 0 % 0 m²/s² 0 0 8.85 80
21:00 75 J/kg 3.2 K 0 % 0 % 0 % 0 m²/s² 0 0 9.56 3
22:00 63 J/kg 3.2 K 0 % 0 % 0 % 0 m²/s² 0 0 7.91 3
23:00 62 J/kg 2.6 K 0 % 0 % 0 % 0 m²/s² 0 0 4.88 80
 07:54     17:06    Daglengte: 9:12 Zondag 15 Dec
00:00 63 J/kg 2.3 K 0 % 0 % 0 % 0 m²/s² 0 0 3.2 80
01:00 72 J/kg 2.0 K 0 % 0 % 0 % 0 m²/s² 0 0 2.42 80
02:00 68 J/kg 2.0 K 0 % 0 % 0 % 0 m²/s² 0 0 2.33 80
03:00 63 J/kg 1.6 K 0 % 0 % 0 % 0 m²/s² 0 0 1.78 80
04:00 48 J/kg 1.4 K 0 % 0 % 0 % 0 m²/s² 0 0 1.58 80
05:00 46 J/kg 1.1 K 0 % 0 % 0 % 0 m²/s² 0 0 1.28 3
06:00 21 J/kg 1.2 K 0 % 0 % 0 % 0 m²/s² 0 0 1.32 80
07:00 5 J/kg 2.0 K 0 % 0 % 0 % 0 m²/s² 0 0 2.12 80
08:00 11 J/kg 2.5 K 0 % 0 % 0 % 0 m²/s² 0 0 2.68 80
09:00 57 J/kg 2.8 K 0 % 0 % 0 % 0 m²/s² 0 0 2.92 61
10:00 80 J/kg 2.7 K 0 % 0 % 0 % 0 m²/s² 0 0 2.82 63
11:00 100 J/kg 2.8 K 0 % 0 % 0 % 0 m²/s² 0 0 2.98 63
12:00 121 J/kg 3.2 K 0 % 0 % 0 % 0 m²/s² 0 0 3.41 61
13:00 83 J/kg 3.9 K 0 % 0 % 0 % 0 m²/s² 0 0 4.11 80
14:00 40 J/kg 4.4 K 0 % 0 % 0 % 0 m²/s² 0 0 4.73 80
15:00 38 J/kg 4.2 K 0 % 0 % 0 % 0 m²/s² 0 0 4.5 63
16:00 43 J/kg 3.6 K 0 % 0 % 0 % 0 m²/s² 0 0 3.84 63
17:00 53 J/kg 3.1 K 0 % 0 % 0 % 0 m²/s² 0 0 3.31 63
18:00 58 J/kg 3.3 K 0 % 0 % 0 % 0 m²/s² 0 0 3.51 63
19:00 10 J/kg 4.6 K 0 % 0 % 0 % 0 m²/s² 0 0 4.75 61
20:00 19 J/kg 5.2 K 0 % 0 % 0 % 0 m²/s² 0 0 5.35 61
21:00 13 J/kg 5.6 K 0 % 0 % 0 % 0 m²/s² 0 0 5.75 80
22:00 0 J/kg 5.9 K 0 % 0 % 0 % 0 m²/s² 0 0 6.14 80
23:00 0 J/kg 5.4 K 0 % 0 % 0 % 0 m²/s² 0 0 5.7 63
 07:55     17:06    Daglengte: 9:11 Maandag 16 Dec
00:00 31 J/kg 5.2 K 0 % 0 % 0 % 0 m²/s² 0 0 5.44 61
01:00 20 J/kg 5.4 K 0 % 0 % 0 % 0 m²/s² 0 0 5.64 61
02:00 17 J/kg 5.0 K 0 % 0 % 0 % 0 m²/s² 0 0 5.27 61
03:00 43 J/kg 4.5 K 0 % 0 % 0 % 0 m²/s² 0 0 4.83 61
04:00 59 J/kg 4.6 K 0 % 0 % 0 % 0 m²/s² 0 0 4.93 61
05:00 68 J/kg 4.4 K 0 % 0 % 0 % 0 m²/s² 0 0 4.73 61
06:00 12 J/kg 5.7 K 0 % 0 % 0 % 0 m²/s² 0 0 6.24 61
07:00 0 J/kg 5.8 K 0 % 0 % 0 % 0 m²/s² 0 0 6.16 61
08:00 0 J/kg 5.7 K 0 % 0 % 0 % 0 m²/s² 0 0 6.06 61
09:00 0 J/kg 5.3 K 0 % 0 % 0 % 0 m²/s² 0 0 5.75 61
10:00 0 J/kg 5.1 K 0 % 0 % 0 % 0 m²/s² 0 0 5.49 61
11:00 0 J/kg 4.3 K 0 % 0 % 0 % 0 m²/s² 0 0 4.66 61
Temp Baro Wind Neerslag
  EWN Forecast EWN WRFDA DWD ICON FMI HIRLAM MET Norway GFS
 07:53     17:05    Daglengte: 9:12 Vandaag
15:00 13.9° 1021.0 hPa 4.8 m/s 1.3 mm 13.9° 1018.8 hPa 4.8 m/s 6.8 mm 14.5° 1021.5 hPa 4.1 m/s -0.3 mm 14.3° 1021.1 hPa 4.8 m/s 0.0 mm 13.6° 1021.1 hPa 5.7 m/s 14.4° 1019.9 hPa 6.1 m/s
18:00 13.5° 1021.2 hPa 4.1 m/s 1.9 mm 13.8° 1019.3 hPa 4.3 m/s 8.6 mm 13.7° 1021.3 hPa 2.4 m/s 0.9 mm 14.2° 1020.9 hPa 4.3 m/s 0.0 mm 13.2° 1021.4 hPa 4.8 m/s 13.9° 1020.6 hPa 4.8 m/s
21:00 13.3° 1021.4 hPa 3.7 m/s 1.6 mm 13.6° 1019.4 hPa 4.2 m/s 9.4 mm 13.6° 1022.2 hPa 2.4 m/s 0.5 mm 13.9° 1020.6 hPa 4.0 m/s 0.0 mm 13.0° 1021.4 hPa 3.9 m/s 13.9° 1021.2 hPa 4.0 m/s
 07:53     17:06    Daglengte: 9:13 Morgen
00:00 13.1° 1020.8 hPa 3.6 m/s 0.0 mm 13.5° 1019.2 hPa 4.3 m/s 10.3 mm 13.4° 1021.2 hPa 1.8 m/s 0.0 mm 13.9° 1019.9 hPa 3.8 m/s 0.0 mm 12.7° 1020.9 hPa 4.1 m/s 13.8° 1020.7 hPa 4.8 m/s
03:00 12.9° 1019.9 hPa 3.9 m/s 2.1 mm 13.4° 1018.0 hPa 4.4 m/s 11.7 mm 12.9° 1020.6 hPa 2.3 m/s 0.5 mm 13.9° 1018.7 hPa 4.5 m/s 0.0 mm 12.6° 1020.0 hPa 4.1 m/s 13.6° 1019.5 hPa 4.8 m/s
06:00 12.9° 1019.1 hPa 3.1 m/s 1.0 mm 13.1° 1017.2 hPa 4.1 m/s 13.0 mm 13.2° 1019.6 hPa 1.7 m/s 0.3 mm 13.7° 1017.8 hPa 4.6 m/s 0.0 mm 12.7° 1019.3 hPa 3.1 m/s 13.4° 1018.7 hPa 4.7 m/s
09:00 13.0° 1019.2 hPa 3.5 m/s 0.8 mm 13.5° 1017.5 hPa 5.2 m/s 15.2 mm 12.6° 1020.0 hPa 2.3 m/s 0.7 mm 14.0° 1017.8 hPa 5.5 m/s 0.0 mm 13.0° 1019.3 hPa 3.3 m/s 13.7° 1018.7 hPa 4.6 m/s
12:00 14.4° 1018.6 hPa 5.4 m/s 0.0 mm 14.3° 1017.3 hPa 7.0 m/s 16.9 mm 15.0° 1018.8 hPa 4.8 m/s 0.3 mm 14.2° 1017.0 hPa 6.3 m/s 0.0 mm 14.6° 1018.9 hPa 5.1 m/s 14.5° 1017.9 hPa 6.9 m/s
15:00 14.0° 1017.0 hPa 5.8 m/s 3.8 mm 13.9° 1015.3 hPa 6.8 m/s 18.0 mm 14.0° 1017.3 hPa 5.0 m/s 1.0 mm 14.2° 1015.0 hPa 7.0 m/s 0.0 mm 14.1° 1017.4 hPa 5.7 m/s 14.4° 1015.9 hPa 7.4 m/s
18:00 13.4° 1016.1 hPa 6.2 m/s 3.7 mm 13.5° 1014.9 hPa 6.4 m/s 19.2 mm 13.4° 1016.5 hPa 4.7 m/s 0.8 mm 14.4° 1014.1 hPa 7.8 m/s 0.0 mm 13.0° 1016.3 hPa 6.0 m/s 14.1° 1015.0 hPa 7.7 m/s
21:00 13.4° 1015.6 hPa 6.9 m/s 2.7 mm 13.8° 1015.0 hPa 7.8 m/s 20.2 mm 13.2° 1015.8 hPa 5.1 m/s 0.3 mm 14.3° 1013.5 hPa 8.6 m/s 0.0 mm 13.1° 1015.9 hPa 6.5 m/s 14.3° 1015.2 hPa 8.1 m/s
 07:54     17:06    Daglengte: 9:12 Zondag 15 Dec
00:00 13.3° 1014.2 hPa 7.2 m/s 1.5 mm 13.8° 1013.4 hPa 8.4 m/s 21.2 mm 13.0° 1014.8 hPa 5.5 m/s 0.6 mm 14.4° 1012.0 hPa 9.5 m/s 0.0 mm 12.7° 1014.4 hPa 6.5 m/s 14.0° 1013.8 hPa 9.0 m/s
03:00 13.2° 1012.5 hPa 7.5 m/s 3.5 mm 13.7° 1012.1 hPa 8.2 m/s 21.9 mm 12.9° 1013.2 hPa 5.7 m/s 0.6 mm 14.3° 1010.1 hPa 8.8 m/s 0.0 mm 12.8° 1012.7 hPa 7.3 m/s 14.1° 1012.8 hPa 9.2 m/s
06:00 12.9° 1011.0 hPa 7.0 m/s 9.1 mm 12.4° 1010.8 hPa 2.4 m/s 50.3 mm 12.9° 1011.4 hPa 6.5 m/s 1.1 mm 14.3° 1008.4 hPa 9.4 m/s 0.0 mm 12.6° 1011.3 hPa 7.3 m/s 12.8° 1011.4 hPa 4.2 m/s
09:00 12.4° 1011.0 hPa 6.7 m/s 14.0 mm 12.1° 1011.1 hPa 1.5 m/s 85.4 mm 12.8° 1011.0 hPa 6.7 m/s 1.9 mm 12.3° 1011.0 hPa 7.1 m/s 12.6° 1011.3 hPa 1.3 m/s
12:00 12.4° 1010.4 hPa 3.9 m/s 19.8 mm 12.2° 1010.9 hPa 2.7 m/s 104.0 mm 13.4° 1009.9 hPa 7.0 m/s 7.7 mm 12.2° 1010.6 hPa 2.7 m/s 12.5° 1010.4 hPa 1.5 m/s
15:00 11.9° 1008.3 hPa 2.7 m/s 26.4 mm 11.5° 1008.3 hPa 1.9 m/s 123.1 mm 13.3° 1007.4 hPa 6.0 m/s 6.1 mm 11.6° 1009.6 hPa 1.0 m/s 12.2° 1007.3 hPa 2.1 m/s
18:00 11.7° 1006.9 hPa 3.4 m/s 30.2 mm 11.4° 1006.6 hPa 2.6 m/s 137.9 mm 13.0° 1006.3 hPa 5.2 m/s 9.5 mm 11.1° 1008.9 hPa 2.5 m/s 11.3° 1006.1 hPa 2.4 m/s
21:00 11.2° 1006.0 hPa 3.3 m/s 30.1 mm 10.2° 1005.9 hPa 1.7 m/s 158.4 mm 12.4° 1004.9 hPa 4.0 m/s 5.7 mm 10.9° 1007.5 hPa 2.8 m/s 10.5° 1005.0 hPa 0.6 m/s
 07:55     17:06    Daglengte: 9:11 Maandag 16 Dec
00:00 10.5° 1003.8 hPa 3.0 m/s 32.4 mm 9.8° 1003.8 hPa 2.3 m/s 178.3 mm 11.8° 1002.5 hPa 1.1 m/s 6.7 mm 10.2° 1005.3 hPa 3.3 m/s 10.1° 1002.4 hPa 1.9 m/s
03:00 10.3° 1001.1 hPa 3.1 m/s 45.6 mm 9.5° 1000.9 hPa 0.9 m/s 191.2 mm 11.4° 1000.4 hPa 1.5 m/s 6.3 mm 9.9° 1002.6 hPa 3.1 m/s 9.8° 1000.1 hPa 2.7 m/s
06:00 9.9° 999.1 hPa 3.0 m/s 43.1 mm 8.9° 998.7 hPa 4.8 m/s 202.8 mm 10.6° 999.1 hPa 0.9 m/s 2.8 mm 9.7° 1000.0 hPa 2.9 m/s 8.7° 998.8 hPa 6.3 m/s
09:00 10.0° 997.1 hPa 3.0 m/s 71.6 mm 9.4° 997.0 hPa 4.5 m/s 208.9 mm 10.4° 998.0 hPa 2.0 m/s 3.0 mm 9.9° 997.0 hPa 3.0 m/s 8.5° 998.6 hPa 1.6 m/s
12:00 10.3° 994.6 hPa 3.2 m/s 70.7 mm 10.4° 995.0 hPa 3.1 m/s 209.0 mm 10.4° 996.2 hPa 3.1 m/s 1.6 mm 10.2° 993.9 hPa 3.2 m/s 9.2° 998.4 hPa 1.5 m/s
15:00 11.8° 990.0 hPa 5.2 m/s 63.7 mm 12.1° 989.4 hPa 5.5 m/s 9.4° 997.4 hPa 1.9 m/s 63.7 mm
18:00 12.7° 988.0 hPa 6.5 m/s 63.8 mm 13.0° 987.1 hPa 6.7 m/s 8.9° 998.4 hPa 4.0 m/s 63.8 mm
21:00 11.4° 988.7 hPa 4.4 m/s 64.0 mm 11.7° 987.6 hPa 4.3 m/s 8.4° 1000.8 hPa 4.8 m/s 64.0 mm
 07:55     17:07    Daglengte: 9:12 Dinsdag 17 Dec
00:00 10.2° 989.3 hPa 2.2 m/s 64.0 mm 10.4° 988.1 hPa 2.0 m/s 8.3° 1002.1 hPa 4.5 m/s 64.0 mm
03:00 10.0° 991.5 hPa 5.6 m/s 64.0 mm 10.2° 990.4 hPa 5.6 m/s 8.0° 1003.8 hPa 5.0 m/s 64.0 mm
06:00 9.8° 993.7 hPa 8.9 m/s 64.0 mm 10.0° 992.6 hPa 9.2 m/s 7.4° 1006.2 hPa 5.5 m/s 64.0 mm
09:00 10.5° 997.8 hPa 8.2 m/s 64.0 mm 10.8° 996.7 hPa 8.5 m/s 7.5° 1009.7 hPa 4.7 m/s 64.0 mm
12:00 11.4° 1001.7 hPa 7.6 m/s 64.0 mm 11.6° 1000.8 hPa 7.8 m/s 9.7° 1011.2 hPa 5.2 m/s 64.0 mm
15:00 10.3° 1004.7 hPa 5.4 m/s 64.0 mm 10.2° 1004.1 hPa 5.5 m/s 10.3° 1011.9 hPa 4.0 m/s 64.0 mm
18:00 8.9° 1008.0 hPa 3.2 m/s 64.0 mm 8.9° 1007.4 hPa 3.3 m/s 8.9° 1014.0 hPa 1.9 m/s 64.0 mm
21:00 7.6° 1009.8 hPa 2.4 m/s 64.0 mm 7.6° 1009.2 hPa 2.4 m/s 7.9° 1015.8 hPa 1.9 m/s 64.0 mm
 07:56     17:07    Daglengte: 9:11 Woensdag 18 Dec
00:00 6.4° 1011.5 hPa 1.6 m/s 64.0 mm 6.3° 1011.1 hPa 1.5 m/s 7.3° 1016.1 hPa 3.1 m/s 64.0 mm
03:00 7.3° 1011.1 hPa 3.7 m/s 64.0 mm 7.3° 1010.8 hPa 3.6 m/s 7.2° 1014.2 hPa 4.9 m/s 64.0 mm
06:00 8.4° 1010.6 hPa 5.7 m/s 64.0 mm 8.4° 1010.5 hPa 5.7 m/s 8.0° 1012.0 hPa 6.0 m/s 64.0 mm
09:00 9.4° 1009.2 hPa 7.3 m/s 68.0 mm 9.6° 1009.1 hPa 7.3 m/s 7.5° 1010.4 hPa 7.0 m/s 68.0 mm
12:00 10.6° 1007.8 hPa 9.0 m/s 69.2 mm 10.7° 1007.7 hPa 9.0 m/s 10.1° 1008.4 hPa 8.6 m/s 69.2 mm
15:00 11.4° 1006.2 hPa 9.1 m/s 76.8 mm 11.4° 1006.4 hPa 9.0 m/s 10.9° 1004.3 hPa 9.6 m/s 76.8 mm
18:00 12.2° 1005.1 hPa 8.6 m/s 90.2 mm 12.2° 1005.1 hPa 9.0 m/s 12.5° 1004.6 hPa 4.0 m/s 90.2 mm
21:00 12.7° 1003.8 hPa 8.6 m/s 91.9 mm 12.8° 1003.8 hPa 9.1 m/s 11.1° 1004.4 hPa 3.4 m/s 91.9 mm
 07:57     17:07    Daglengte: 9:10 Donderdag 19 Dec
00:00 13.1° 1002.5 hPa 9.0 m/s 106.9 mm 13.4° 1002.4 hPa 9.2 m/s 10.1° 1003.1 hPa 6.2 m/s 106.9 mm
03:00 12.8° 1002.0 hPa 8.5 m/s 118.3 mm 13.0° 1001.8 hPa 8.7 m/s 10.5° 1003.7 hPa 6.5 m/s 118.3 mm
06:00 12.5° 1001.6 hPa 8.0 m/s 120.9 mm 12.6° 1001.2 hPa 8.2 m/s 11.5° 1006.3 hPa 6.2 m/s 120.9 mm
09:00 12.9° 1002.1 hPa 6.8 m/s 122.3 mm 13.1° 1001.6 hPa 6.9 m/s 11.8° 1007.4 hPa 5.9 m/s 122.3 mm
12:00 13.3° 1002.1 hPa 6.1 m/s 126.0 mm 13.5° 1002.0 hPa 5.6 m/s 11.6° 1003.3 hPa 11.3 m/s 126.0 mm
15:00 12.6° 1000.0 hPa 7.4 m/s 137.4 mm 12.4° 1000.5 hPa 6.5 m/s 14.1° 995.5 hPa 17.0 m/s 137.4 mm
18:00 11.6° 998.6 hPa 7.8 m/s 147.3 mm 11.4° 998.9 hPa 7.4 m/s 14.4° 995.2 hPa 11.9 m/s 147.3 mm
21:00 11.5° 999.2 hPa 6.6 m/s 150.8 mm 11.2° 999.8 hPa 6.2 m/s 14.3° 993.3 hPa 10.5 m/s 150.8 mm
 07:57     17:08    Daglengte: 9:11 Vrijdag 20 Dec
00:00 11.2° 1000.2 hPa 5.8 m/s 155.8 mm 11.0° 1000.6 hPa 5.0 m/s 13.1° 995.7 hPa 14.1 m/s 155.8 mm
03:00 11.1° 1001.3 hPa 5.4 m/s 157.6 mm 11.0° 1001.5 hPa 4.7 m/s 12.6° 999.3 hPa 12.5 m/s 157.6 mm
06:00 11.1° 1002.3 hPa 4.8 m/s 159.1 mm 11.0° 1002.3 hPa 4.4 m/s 12.4° 1002.8 hPa 9.2 m/s 159.1 mm
09:00 12.0° 1002.1 hPa 5.9 m/s 160.7 mm 11.9° 1001.7 hPa 5.8 m/s 12.5° 1006.7 hPa 6.8 m/s 160.7 mm
12:00 12.9° 1001.7 hPa 7.3 m/s 161.7 mm 12.8° 1001.1 hPa 7.3 m/s 13.8° 1008.5 hPa 7.8 m/s 161.7 mm
18:00 13.8° 1001.7 hPa 6.0 m/s 162.7 mm 13.9° 1000.9 hPa 6.0 m/s 12.9° 1011.0 hPa 5.9 m/s 162.7 mm
 07:58     17:08    Daglengte: 9:10 Zaterdag 21 Dec
00:00 14.1° 1004.2 hPa 5.9 m/s 165.5 mm 14.2° 1003.5 hPa 6.0 m/s 12.9° 1011.6 hPa 5.2 m/s 165.5 mm
06:00 13.6° 1002.4 hPa 5.4 m/s 173.0 mm 13.5° 1001.5 hPa 5.3 m/s 14.9° 1012.8 hPa 6.1 m/s 173.0 mm
12:00 14.6° 1003.6 hPa 7.7 m/s 173.8 mm 14.5° 1002.3 hPa 7.9 m/s 15.4° 1018.4 hPa 5.2 m/s 173.8 mm
18:00 13.2° 1003.8 hPa 8.4 m/s 174.2 mm 13.1° 1002.3 hPa 9.0 m/s 14.7° 1020.6 hPa 1.5 m/s 174.2 mm
 07:58     17:09    Daglengte: 9:11 Zondag 22 Dec
00:00 11.6° 1005.3 hPa 8.4 m/s 174.4 mm 11.3° 1003.6 hPa 9.0 m/s 14.4° 1023.9 hPa 1.5 m/s 174.4 mm
06:00 10.7° 1008.1 hPa 7.7 m/s 174.5 mm 10.4° 1006.7 hPa 8.2 m/s 14.0° 1023.6 hPa 2.4 m/s 174.5 mm
12:00 12.2° 1013.3 hPa 6.8 m/s 174.7 mm 11.9° 1012.3 hPa 7.1 m/s 16.1° 1024.5 hPa 3.2 m/s 174.7 mm
18:00 11.6° 1017.2 hPa 6.5 m/s 175.1 mm 11.3° 1016.6 hPa 6.9 m/s 15.3° 1023.8 hPa 1.7 m/s 175.1 mm
 07:59     17:09    Daglengte: 9:10 Maandag 23 Dec
00:00 14.3° 1023.5 hPa 1.8 m/s 175.1 mm 14.3° 1023.5 hPa 1.8 m/s 175.1 mm
06:00 13.2° 1021.4 hPa 2.5 m/s 175.1 mm 13.2° 1021.4 hPa 2.5 m/s 175.1 mm
12:00 13.8° 1019.7 hPa 4.4 m/s 2.6 mm
18:00 13.1° 1017.4 hPa 4.2 m/s 2.1 mm
 07:59     17:10    Daglengte: 9:11 Dinsdag 24 Dec
00:00 12.6° 1016.1 hPa 4.7 m/s 2.9 mm
06:00 12.5° 1013.2 hPa 4.7 m/s 4.2 mm
12:00 13.3° 1012.1 hPa 3.4 m/s 6.9 mm
18:00 12.7° 1010.8 hPa 3.4 m/s 4.0 mm
 07:59     17:10    Daglengte: 9:11 Woensdag 25 Dec
00:00 12.2° 1011.6 hPa 3.5 m/s 3.8 mm
06:00 11.8° 1011.6 hPa 2.5 m/s 2.5 mm
12:00 12.6° 1013.1 hPa 3.5 m/s 2.6 mm
18:00 12.0° 1013.4 hPa 3.1 m/s 3.2 mm
 08:00     17:11    Daglengte: 9:11 Donderdag 26 Dec
00:00 11.3° 1014.4 hPa 1.9 m/s 2.0 mm
06:00 11.1° 1013.6 hPa 2.0 m/s 2.3 mm
12:00 12.5° 1014.6 hPa 2.1 m/s 2.0 mm
18:00 11.7° 1014.4 hPa 1.5 m/s 1.8 mm
 08:00     17:12    Daglengte: 9:12 Vrijdag 27 Dec
00:00 11.6° 1015.7 hPa 1.6 m/s 2.0 mm
06:00 11.2° 1015.7 hPa 2.0 m/s 2.4 mm
12:00 12.4° 1017.6 hPa 2.4 m/s 1.4 mm
18:00 11.8° 1018.0 hPa 1.7 m/s 0.9 mm
 08:00     17:12    Daglengte: 9:12 Zaterdag 28 Dec
00:00 11.2° 1019.7 hPa 1.3 m/s 0.7 mm
06:00 10.7° 1019.2 hPa 1.9 m/s 1.2 mm
12:00 12.2° 1020.0 hPa 2.4 m/s 2.0 mm
FMI Hirlam - 7.5 km EWN WRFDA - 12 km DWD ICON - 7 km GFS - 25 km Basiskaart






























































Updatetijd (Europe/Amsterdam) Resolutie Lengte Stap
FMI Hirlam 12:15, 18:15, 00:15, 06:15 7.5 km 49h 1h
EWN WRFDA 08:15, 14:15, 20:15, 02:15 12 km 73h 1h
DWD ICON 10:45, 16:45, 22:45, 04:45 7 km 75h 1h
GFS 13:30, 19:30, 01:30, 07:30 25 km 237h 3h
30+ mm
25-30 mm
20-25 mm
15-20 mm
10-15 mm
6-10 mm
4-6 mm
2-4 mm
1-2 mm
0.5-1 mm
0.2-0.5 mm
0.1-0.2 mm
30+ mm
25-30 mm
20-25 mm
15-20 mm
10-15 mm
6-10 mm
4-6 mm
2-4 mm
1-2 mm
0.5-1 mm
0.2-0.5 mm
0.1-0.2 mm
Sneeuwval
Natte sneeuw
Hagel
Vorst
30+ mm
25-30 mm
20-25 mm
15-20 mm
10-15 mm
6-10 mm
4-6 mm
2-4 mm
1-2 mm
0.5-1 mm
0.2-0.5 mm
0.1-0.2 mm
Sneeuwval
Natte sneeuw
Hagel
Vorst
Onweer
50 mm
40 mm
30 mm
26 mm
22 mm
18 mm
14 mm
10 mm
9 mm
8 mm
7 mm
6 mm
5 mm
4.5 mm
4 mm
3.5 mm
3 mm
2.5 mm
2 mm
1.5 mm
1 mm
0.8 mm
0.6 mm
0.4 mm
0.2 mm
0.05 mm
35°
30°
25°
20°
15°
10°
-5°
-10°
-15°
-20°
-25°
-30°
-35°
120> km/h
105 km/h
90 km/h
75 km/h
60 km/h
50 km/h
40 km/h
30 km/h
20 km/h
10 km/h
0 km/h
2600 J/kg
2400 J/kg
2200 J/kg
2000 J/kg
1800 J/kg
1600 J/kg
1400 J/kg
1200 J/kg
1000 J/kg
800 J/kg
600 J/kg
400 J/kg
200 J/kg
70 dBZ
65 dBZ
60 dBZ
55 dBZ
50 dBZ
45 dBZ
40 dBZ
35 dBZ
30 dBZ
25 dBZ
20 dBZ
15 dBZ
10 dBZ
5 dBZ
-1 K
-2 K
-3 K
-4 K
-5 K
-6 K
-7 K
-8 K
-9 K
950 m²/s²
900 m²/s²
850 m²/s²
800 m²/s²
750 m²/s²
700 m²/s²
650 m²/s²
600 m²/s²
550 m²/s²
500 m²/s²
450 m²/s²
400 m²/s²
350 m²/s²
300 m²/s²
250 m²/s²
200 m²/s²
150 m²/s²
100 m²/s²
46 m/s
44 m/s
42 m/s
40 m/s
38 m/s
36 m/s
34 m/s
32 m/s
30 m/s
28 m/s
26 m/s
24 m/s
22 m/s
20 m/s
16 m/s
12 m/s
8 m/s
4 m/s
30 m/s
28 m/s
26 m/s
24 m/s
22 m/s
20 m/s
18 m/s
16 m/s
14 m/s
12 m/s
10 m/s
8 m/s
6 m/s
4 m/s
2 m/s
3.0
2.8
2.6
2.4
2.2
2.0
1.8
1.6
1.4
1.2
1.0
0.8
0.6
0.4
0.2
15
14
13
12
11
10
9
8
7
6
5
4
3
2
1
90%
80%
70%
60%
50%
40%
30%
20%
10%
42
40
38
36
34
32
30
28
26
24
22
20
18
16
14
12
90+ cm
80-90 cm
70-80 cm
60-70 cm
50-60 cm
40-50 cm
30-40 cm
20-30 cm
10-20 cm
1-10 cm
Sneeuwval
Natte sneeuw
Regen
>120 mm
115 mm
110 mm
105 mm
100 mm
95 mm
90 mm
85 mm
80 mm
75 mm
70 mm
65 mm
60 mm
55 mm
50 mm
45 mm
45 mm
40 mm
35 mm
30 mm
25 mm
20 mm
15 mm
10 mm
5 mm
0.1 mm
960 hPa
880 hPa
800 hPa
720 hPa
640 hPa
560 hPa
584 gpdm
568 gpdm
552 gpdm
536 gpdm
520 gpdm
504 gpdm
488 gpdm
Extreem zwaar Noodweer Kans op onweer
15% 15% 5% 50% 15%

Dag




Kaart






35°
30°
25°
20°
15°
10°
-5°
-10°
-15°
-20°
-25°
-30°
-35°
120> km/h
105 km/h
90 km/h
75 km/h
60 km/h
50 km/h
40 km/h
30 km/h
20 km/h
10 km/h
0 km/h
Extreem zwaar Noodweer Kans op onweer
15% 15% 5% 50% 15%
>120 mm
115 mm
110 mm
105 mm
100 mm
95 mm
90 mm
85 mm
80 mm
75 mm
70 mm
65 mm
60 mm
55 mm
50 mm
45 mm
45 mm
40 mm
35 mm
30 mm
25 mm
20 mm
15 mm
10 mm
5 mm
0.1 mm
Onweer risico kaarten - De groene en gele kleur geeft de kans op onweer aan binnen 40 km van een punt. Oranje, rood en violet hebben hetzelfde niveau zoals je het ziet op estofex.org waaronder ook de kans op hagel en supercells.

dBZ - dBZ staat voor decibel ten opzichte van Z.

Cape - Convective available potential energy (CAPE), is de totale hoeveelheid energie die een luchtpakketje nodig heeft om zover mogelijk te stijgen in de atmosfeer.

K Index - K-Index wordt berekend door de Vertical Totals (VT) en het verschil tussen de 850 hPa temperatuur en de 700 hPa dauwpuntsdepressie (Tdd 700) bij elkaar op te tellen.

TT Index - Convectie index wordt gebruikt voor het voorspellen van zware buien of onweer.

WRF - The Weather Research and Forecasting (WRF) is een volgende generatie mesoscale numeriek weersvoorspelling systeem ontworpen om zowel de operationele planning als het atmosferisch onderzoek te dienen. WRF is a cooperatie tussen het National Center for Atmospheric Research (NCAR), National Centers for Environmental Prediction (NCEP), Forecast Systems Laboratory (FSL), Air Force Weather Agency (AFWA), Naval Research Laboratory, University of Oklahoma, en de Federal Aviation Administration (FAA). Deze software draait op onze server.

WRFDA - Een meer geavanceerde versie van WRF

Arome - Het 2.5 km Arome model. Verzorgd door het Noors Meteorologisch Instituut.

MET Norway - De proff-default 4km meteorological data is een beste keus selectie van meteorologische modellen gebruikt door met.no die zijn geïnterpoleerd tot een gemeenschappelijke dataset. Verzorgd door het Noorse Meteorologisch Instituut.

SMHI - Het Hirlam model verzorgd door het Zweeds meteorologisch instituut.

FMI - Het Hirlam model verzorgd door het Fins meteorologisch instituut. Dekking alleen Finland.

GFS - Het Global Forecast Systeem (GFS) is een wereldwijd numerieke weersvoorspelling computermodel, gerund door NOAA.

GEM-GDPS - Het GEM-GDPS is a wereldwijd numeriek weersvoorspelling computermodel verzorgd door het Canadees Meteorologisch Centrum.

Credits/Info: Dank aan Stefan Gofferje van sääkeskus.fi voor enkele formules van GrADS. Info: Wikipedia.

Betrouwbaarheid van de verwachting

NB! 2015-03-29: Rebuilding the accuracy-test!

EWNACC
Day 1 Good forecasts

Dag 1 Tmax

Dag 2 Tmax

Geladen verwachtingen TOP 50

Totaal geladen verwachtingen:
Plaats Latitude Longitude Verwachtingen Plaats Latitude Longitude Verwachtingen